This demonstration page uses our WeatherBlox Daily Observations layout. Learn more.

Left ArrowRight Arrow

41.55636, -103.73856

Hourly Observations for August 11, 2021

Temp ( °F °C ) Dew Point ( °F °C ) Humidity (%) Winds ( mph kmh ) Pressure ( in mb ) Visibility ( mi km ) Precip ( " mm )
12:58 am 00:58 Clear 65 18.1 18 -7.8 16 16 WNW 6 9 29.84 1011 10 16 0.00 0.00
1:58 am 01:58 Clear 59 15.2 20 -6.9 21 21 NNW 10 17 29.88 1012 10 16 0.00 0.00
2:58 am 02:58 Clear 57 13.7 20 -6.8 24 24 SW 5 7 29.89 1012 10 16 0.00 0.00
3:58 am 03:58 Clear 58 14.2 18 -8 21 21 SW 5 7 29.89 1012 10 16 0.00 0.00
4:58 am 04:58 Clear 54 12.4 20 -6.8 26 26 W 6 9 29.93 1014 10 16 0.00 0.00
5:58 am 05:58 Clear 55 12.6 23 -5.1 29 29 WSW 6 9 29.93 1014 10 16 0.00 0.00
6:58 am 06:58 Sunny 53 11.9 26 -3.3 35 35 W 3 6 29.95 1014 10 16 0.00 0.00
7:58 am 07:58 Sunny 59 15.2 33 0.3 36 36 Calm 29.98 1015 10 16 0.00 0.00
8:58 am 08:58 Sunny 69 20.5 35 1.4 28 28 WNW 5 7 29.98 1015 10 16 0.00 0.00
9:58 am 09:58 Sunny 76 24.2 38 3.5 26 26 S 3 6 29.97 1015 10 16 0.00 0.00
10:58 am 10:58 Sunny 79 26.3 39 3.8 23 23 SE 7 11 29.95 1014 10 16 0.00 0.00
11:58 am 11:58 Sunny 83 28.2 35 1.9 18 18 ESE 7 11 29.93 1014 10 16 0.00 0.00
12:58 pm 12:58 Sunny 86 30.1 30 -1.2 13 13 Calm 29.91 1013 10 16 0.00 0.00
1:58 pm 13:58 Sunny 90 32 25 -4 9 9 Calm 29.87 1012 10 16 0.00 0.00
2:58 pm 14:58 Sunny 93 34 23 -5 8 8 W 16 26 29.85 1011 10 16 0.00 0.00
3:58 pm 15:58 Sunny 94 34.6 24 -4.7 8 8 W 8 13 29.83 1010 10 16 0.00 0.00
4:58 pm 16:58 Sunny 93 33.9 26 -3.5 9 9 Calm 29.83 1010 10 16 0.00 0.00
5:58 pm 17:58 Sunny 91 32.6 34 0.9 13 13 ENE 12 19 29.82 1010 10 16 0.00 0.00
6:58 pm 18:58 Sunny 85 29.5 37 2.6 18 18 E 12 19 29.84 1011 10 16 0.00 0.00
7:58 pm 19:58 Sunny 81 27.2 36 2.4 20 20 SE 16 26 29.83 1010 10 16 0.00 0.00
8:58 pm 20:58 Clear 80 26.9 35 1.6 19 19 SSE 17 28 29.82 1010 10 16 0.00 0.00
9:58 pm 21:58 Clear 76 24.5 39 4.1 27 27 S 17 28 29.83 1010 10 16 0.00 0.00
10:58 pm 22:58 Clear 77 24.8 40 4.6 27 27 SSW 22 35 29.83 1010 10 16 0.00 0.00
11:58 pm 23:58 Clear 75 24.1 39 4 27 27 SSW 21 33 29.85 1011 10 16 0.00 0.00

Powered by AerisWeather